User: anonymous   Login
Location: Bęczków
(50.8761°N, 20.8028°E)
Time: 14:29:10
(UTC+02:00)
Language:

Envisat - Orbit

View from above orbital plane
View from above orbital plane
View from above satellite
View from above satellite

Ground track
Ground track

The orbit data is extracted from the following two-line orbital elements,

1 27386U 02009A   19139.03999852  .00000012  00000-0  17461-4 0  9991
2 27386  98.1515 161.6282 0001361  74.8882 285.2460 14.37948578901790
Epoch (UTC): 19 May 2019 00:57:35
Eccentricity: 0.0001361
inclination: 98.1515°
perigee height: 764 km
apogee height: 766 km
right ascension of ascending node: 161.6282°
argument of perigee: 74.8882°
revolutions per day: 14.37948578
mean anomaly at epoch: 285.2460°
orbit number at epoch: 90179

The dashed part of the orbit path shows where the satellite is in the earth's shadow,  

DLR